GW3300 Weather Reports


Display with metric or nautical units.
time (UTC)temp
F
wind
direction
speed
MPH
gust
MPH
rain 1hr
in
rain 24hr
in
rain mn
in
humidity
%
barometer
mb
20260505062023 55 235 0.0 2.0 0.00 0.00 0.00 85 1013.1
20260505061525 55 142 0.0 2.0 0.00 0.00 0.00 85 1013.1
20260505061124 56 230 0.0 1.0 0.00 0.00 0.00 85 1013.0
20260505060520 56 0.0 2.0 0.00 0.00 0.00 85 1012.9
20260505060044 56 354 0.0 2.0 0.00 0.00 0.00 84 1012.9
20260505055604 56 0.0 0.0 0.00 0.00 0.00 84 1012.9
20260505055040 56 0.0 0.0 0.00 0.00 0.00 84 1012.9
20260505054530 57 0.0 0.0 0.00 0.00 0.00 83 1012.7
20260505054023 57 0.0 0.0 0.00 0.00 0.00 82 1012.8
20260505053519 57 0.0 1.0 0.00 0.00 0.00 82 1012.8
20260505053020 58 171 0.0 1.0 0.00 0.00 0.00 81 1012.7
20260505052523 58 0.0 0.0 0.00 0.00 0.00 81 1012.7
20260505052046 58 0.0 1.0 0.00 0.00 0.00 80 1012.6
20260505051526 58 0.0 0.0 0.00 0.00 0.00 80 1012.6
20260505051023 59 303 0.0 2.0 0.00 0.00 0.00 79 1012.6
20260505050526 59 149 0.0 1.0 0.00 0.00 0.00 79 1012.6
20260505041532 63 233 1.0 2.0 0.00 0.00 0.00 72 1012.0
20260505041023 63 229 1.0 3.0 0.00 0.00 0.00 71 1011.9
20260505040520 63 318 1.0 2.0 0.00 0.00 0.00 70 1011.8
20260505040023 63 267 1.0 2.0 0.00 0.00 0.00 72 1011.7
20260505035544 63 74 0.0 2.0 0.00 0.00 0.00 72 1011.7
20260505035020 63 311 1.0 2.0 0.00 0.00 0.00 72 1011.5
20260505034540 64 343 0.0 1.0 0.00 0.00 0.00 71 1011.6
20260505034026 64 0.0 0.0 0.00 0.00 0.00 70 1011.4
20260505033603 65 188 0.0 1.0 0.00 0.00 0.00 69 1011.4
20260505033020 65 75 0.0 1.0 0.00 0.00 0.00 68 1011.4
20260505032523 65 193 0.0 2.0 0.00 0.00 0.00 68 1011.3
20260505032023 66 87 0.0 2.0 0.00 0.00 0.00 67 1011.2
20260505031524 66 210 0.0 2.0 0.00 0.00 0.00 66 1011.1
20260505031019 67 178 0.0 2.0 0.00 0.00 0.00 65 1011.2
20260505030543 67 191 0.0 2.0 0.00 0.00 0.00 64 1011.1
20260505030019 67 131 0.0 2.0 0.00 0.00 0.00 63 1011.1
20260505025520 68 100 0.0 2.0 0.00 0.00 0.00 63 1011.0
20260505025020 68 86 1.0 4.0 0.00 0.00 0.00 63 1010.9
20260505024524 69 174 1.0 3.0 0.00 0.00 0.00 62 1010.8
20260505024024 69 80 1.0 3.0 0.00 0.00 0.00 62 1010.7
20260505023523 70 309 1.0 2.0 0.00 0.00 0.00 62 1010.7
20260505023020 70 114 1.0 2.0 0.00 0.00 0.00 66 1010.6
20260505022520 70 209 0.0 2.0 0.00 0.00 0.00 65 1010.5
20260505022020 71 243 1.0 3.0 0.00 0.00 0.00 65 1010.6
20260505021524 71 222 0.0 2.0 0.00 0.00 0.00 66 1010.6
20260505021024 71 15 0.0 2.0 0.00 0.00 0.00 64 1010.6
20260505020524 71 209 1.0 3.0 0.00 0.00 0.00 64 1010.7
20260505020039 71 300 1.0 3.0 0.00 0.00 0.00 63 1010.6
20260505015601 71 315 2.0 3.0 0.00 0.00 0.00 64 1010.7
20260505015024 71 340 1.0 3.0 0.00 0.00 0.00 66 1010.6
20260505014520 71 45 1.0 2.0 0.00 0.00 0.00 67 1010.6
20260505014020 71 328 1.0 2.0 0.00 0.00 0.00 67 1010.6
20260505013523 71 167 1.0 2.0 0.00 0.00 0.00 65 1010.7
20260505013059 71 162 0.0 2.0 0.00 0.00 0.00 66 1010.7
20260505012519 71 305 1.0 2.0 0.00 0.00 0.00 66 1010.6
20260505012020 72 92 1.0 2.0 0.00 0.00 0.00 64 1010.7
20260505011544 72 23 2.0 4.0 0.00 0.00 0.00 63 1010.8
20260505011020 72 27 1.0 4.0 0.00 0.00 0.00 63 1010.8
20260505010521 72 177 1.0 4.0 0.00 0.00 0.00 65 1010.8
20260505010026 72 210 0.0 2.0 0.00 0.00 0.00 65 1010.8
20260505005528 72 318 1.0 3.0 0.00 0.00 0.00 64 1010.7
20260505005022 72 3 2.0 3.0 0.00 0.00 0.00 62 1010.8
20260505004520 72 321 1.0 2.0 0.00 0.00 0.00 62 1010.9
20260505004026 72 154 1.0 3.0 0.00 0.00 0.00 62 1010.9
20260505003521 72 157 2.0 3.0 0.00 0.00 0.00 63 1010.9
20260505003044 72 143 1.0 4.0 0.00 0.00 0.00 63 1010.9
20260505002524 72 1 0.0 2.0 0.00 0.00 0.00 62 1011.0
20260505002020 72 184 1.0 3.0 0.00 0.00 0.00 63 1011.0
20260505001519 72 207 1.0 3.0 0.00 0.00 0.00 62 1011.0
20260505001041 72 184 2.0 4.0 0.00 0.00 0.00 63 1011.0
20260505000532 72 333 1.0 2.0 0.00 0.00 0.00 63 1011.0
20260505000020 71 139 1.0 3.0 0.00 0.00 0.00 64 1011.0
20260504235523 71 93 1.0 2.0 0.00 0.00 0.00 64 1011.2
20260504235023 71 256 1.0 2.0 0.00 0.00 0.00 63 1011.2
20260504234520 71 226 1.0 3.0 0.00 0.00 0.00 63 1011.2
20260504234027 71 132 1.0 3.0 0.00 0.00 0.00 63 1011.2
20260504233523 71 214 2.0 4.0 0.00 0.00 0.00 62 1011.2
20260504233024 71 297 1.0 4.0 0.00 0.00 0.00 62 1011.3
20260504232539 71 202 1.0 4.0 0.00 0.00 0.00 63 1011.2
20260504232020 71 239 2.0 4.0 0.00 0.00 0.00 63 1011.2
20260504231527 71 321 2.0 4.0 0.00 0.00 0.00 63 1011.1
20260504231024 71 229 1.0 3.0 0.00 0.00 0.00 63 1011.2
20260504230526 70 324 3.0 5.0 0.00 0.00 0.00 64 1011.4
20260504230024 71 311 2.0 4.0 0.00 0.00 0.00 63 1011.4
20260504225524 70 308 1.0 4.0 0.00 0.00 0.00 64 1011.4
20260504225019 70 193 2.0 4.0 0.00 0.00 0.00 64 1011.5
20260504224520 70 295 1.0 4.0 0.00 0.00 0.00 63 1011.5
20260504224043 70 336 1.0 3.0 0.00 0.00 0.00 64 1011.7
20260504223544 70 264 1.0 3.0 0.00 0.00 0.00 63 1011.7
20260504223019 70 181 1.0 4.0 0.00 0.00 0.00 65 1011.9
20260504222521 70 147 1.0 3.0 0.00 0.00 0.00 63 1011.9
20260504222022 70 353 1.0 4.0 0.00 0.00 0.00 64 1012.0
20260504221519 70 151 1.0 3.0 0.00 0.00 0.00 64 1012.0
20260504221020 70 222 1.0 3.0 0.00 0.00 0.00 66 1012.0
20260504220523 69 328 1.0 3.0 0.00 0.00 0.00 64 1012.1
20260504220021 70 236 1.0 4.0 0.00 0.00 0.00 64 1012.2
20260504215539 69 47 1.0 3.0 0.00 0.00 0.00 65 1012.2
20260504215020 69 330 1.0 2.0 0.00 0.00 0.00 65 1012.2
20260504214525 70 188 1.0 2.0 0.00 0.00 0.00 63 1012.3
20260504214039 70 122 1.0 4.0 0.00 0.00 0.00 64 1012.4
20260504213519 70 51 1.0 2.0 0.00 0.00 0.00 65 1012.4
20260504213022 69 279 1.0 4.0 0.00 0.00 0.00 63 1012.3
20260504212519 69 83 1.0 4.0 0.00 0.00 0.00 64 1012.3
20260504212019 69 17 1.0 3.0 0.00 0.00 0.00 65 1012.5
20260504211522 69 234 1.0 3.0 0.00 0.00 0.00 65 1012.6
20260504211019 69 252 1.0 4.0 0.00 0.00 0.00 65 1012.7
20260504210539 69 273 2.0 4.0 0.00 0.00 0.00 64 1012.7
20260504210031 69 255 2.0 4.0 0.00 0.00 0.00 65 1012.8
20260504205524 68 265 2.0 4.0 0.00 0.00 0.00 67 1012.9
20260504205039 68 96 1.0 3.0 0.00 0.00 0.00 67 1013.0
20260504204526 68 65 1.0 2.0 0.00 0.00 0.00 67 1013.2
20260504204020 68 186 1.0 4.0 0.00 0.00 0.00 66 1013.1
20260504203524 68 282 1.0 3.0 0.00 0.00 0.00 67 1013.1
20260504203040 67 283 2.0 5.0 0.00 0.00 0.00 68 1013.2
20260504202519 67 295 1.0 3.0 0.00 0.00 0.00 68 1013.3
20260504202024 67 103 2.0 4.0 0.00 0.00 0.00 68 1013.3
20260504201519 67 263 2.0 4.0 0.00 0.00 0.00 68 1013.3
20260504201019 67 259 1.0 4.0 0.00 0.00 0.00 70 1013.4
20260504200520 67 238 2.0 4.0 0.00 0.00 0.00 68 1013.5
20260504200024 67 262 1.0 4.0 0.00 0.00 0.00 71 1013.5
20260504195519 66 91 1.0 3.0 0.00 0.00 0.00 72 1013.6
20260504195020 65 252 1.0 3.0 0.00 0.00 0.00 71 1013.7
20260504194524 65 188 2.0 4.0 0.00 0.00 0.00 70 1013.7
20260504194020 66 245 1.0 5.0 0.00 0.00 0.00 72 1013.7
20260504193627 65 179 1.0 5.0 0.00 0.00 0.00 72 1013.7
20260504193021 65 238 2.0 5.0 0.00 0.00 0.00 71 1013.7
20260504192520 64 292 2.0 4.0 0.00 0.00 0.00 73 1013.7
20260504192059 64 241 1.0 4.0 0.00 0.00 0.00 72 1013.7
20260504191520 64 137 1.0 4.0 0.00 0.00 0.00 72 1013.8
20260504191021 64 284 1.0 3.0 0.00 0.00 0.00 74 1013.8
20260504190541 64 239 2.0 3.0 0.00 0.00 0.00 73 1013.9
20260504190021 63 91 1.0 3.0 0.00 0.00 0.00 74 1013.8
20260504185520 63 255 1.0 4.0 0.00 0.00 0.00 74 1013.9
20260504185024 64 136 1.0 3.0 0.00 0.00 0.00 72 1013.9
20260504184519 64 128 0.0 2.0 0.00 0.00 0.00 73 1014.0
20260504184020 63 126 2.0 3.0 0.00 0.00 0.00 74 1014.0
20260504183527 63 64 2.0 4.0 0.00 0.00 0.00 74 1013.9
20260504183024 62 125 1.0 3.0 0.00 0.00 0.00 75 1013.9
20260504182520 62 91 2.0 4.0 0.00 0.00 0.00 76 1013.9
20260504182021 62 229 1.0 3.0 0.00 0.00 0.00 77 1014.0
20260504181539 61 270 1.0 3.0 0.00 0.00 0.00 77 1014.0
20260504181039 60 88 1.0 3.0 0.00 0.00 0.00 79 1014.1
20260504180527 60 245 1.0 2.0 0.00 0.00 0.00 79 1014.0
20260504180027 60 104 1.0 3.0 0.00 0.00 0.00 80 1014.1
20260504175519 59 90 1.0 4.0 0.00 0.00 0.00 80 1014.0
20260504175029 60 88 2.0 5.0 0.00 0.00 0.00 79 1014.0
20260504174520 59 104 1.0 4.0 0.00 0.00 0.00 80 1014.0
20260504174039 59 252 1.0 4.0 0.00 0.00 0.00 79 1014.1
20260504173519 60 227 1.0 4.0 0.00 0.00 0.00 79 1014.0
20260504173028 60 272 1.0 4.0 0.00 0.00 0.00 80 1014.0
20260504172522 60 145 1.0 2.0 0.00 0.00 0.00 78 1014.1
20260504172019 59 159 1.0 3.0 0.00 0.00 0.00 80 1014.0
20260504171519 60 197 1.0 3.0 0.00 0.00 0.00 80 1014.0
20260504171020 60 98 1.0 3.0 0.00 0.00 0.00 80 1013.9
20260504170519 59 277 1.0 3.0 0.00 0.00 0.00 80 1013.9
20260504151039 57 186 1.0 2.0 0.00 0.00 0.00 83 1013.4
20260504150541 57 259 1.0 3.0 0.00 0.00 0.00 84 1013.3
20260504141019 56 88 0.0 2.0 0.00 0.00 0.00 84 1012.7
20260504140519 56 177 1.0 3.0 0.00 0.00 0.00 84 1012.6
20260504130520 57 0.0 1.0 0.00 0.00 0.00 83 1011.5
20260504110519 54 136 1.0 2.0 0.00 0.00 0.00 90 1010.0
20260504100518 55 0.0 0.0 0.00 0.00 0.00 88 1009.4
20260504081518 59 0.0 0.0 0.00 0.00 0.00 81 1008.9
20260504081028 60 13 0.0 1.0 0.00 0.00 0.00 81 1008.8
20260504080518 60 71 0.0 1.0 0.00 0.00 0.00 81 1008.8